Regional Weather Roundup
Issued by NWS

Home | Current Version | Previous Version | Graphics & Text | Print | Product List | Glossary On
Versions: 1 2 3 4 5 6 7 8 9 10 11 12 13 14 15 16 17 18 19 20 21 22 23 24 25 26 27 28 29 30 31 32 33 34 35 36 37 38 39 40 41 42 43 44 45 46 47 48 49 50
000
ASUS43 KBIS 271710
RWRND

NORTH DAKOTA REGIONAL WEATHER ROUNDUP
NATIONAL WEATHER SERVICE BISMARCK ND
1200 PM CDT MON APR 27 2015

NOTE: "FAIR" INDICATES FEW OR NO CLOUDS BELOW 12,000 FEET WITH NO
SIGNIFICANT WEATHER AND/OR OBSTRUCTIONS TO VISIBILITY.


NDZ001>003-009>011-017-271800-
NORTHWEST NORTH DAKOTA

CITY           SKY/WX    TMP DP  RH WIND       PRES   REMARKS
WILLISTON      CLOUDY    46  39  76 W6        30.34R
MINOT          LGT RAIN  44  40  85 NW10      30.30S
MINOT AFB      LGT RAIN  43  43 100 NW9       30.30R
$$

NDZ018>021-031>035-040>046-271800-
SOUTHWEST NORTH DAKOTA

CITY           SKY/WX    TMP DP  RH WIND       PRES   REMARKS
BISMARCK       CLOUDY    48  43  82 N14       30.29R
DICKINSON      LGT RAIN  43  39  86 NW9       30.31S
GARRISON         N/A     44  41  89 N10       30.31R
HETTINGER ARPT CLOUDY    42  39  89 NW15      30.32S
$$

NDZ004>008-012>016-024-026-027-054-271800-
NORTHEAST NORTH DAKOTA

CITY           SKY/WX    TMP DP  RH WIND       PRES   REMARKS
GRAND FORKS    CLOUDY    64  43  46 VRB3      30.22S
GRND FRKS AFB  MOSUNNY   61  43  50 VRB2      30.22S
DEVILS LAKE    PTSUNNY   52  39  62 NW10G17   30.25S
$$

NDZ022-023-025-028>030-036>039-047>053-271800-
SOUTHEAST NORTH DAKOTA

CITY           SKY/WX    TMP DP  RH WIND       PRES   REMARKS
FARGO          MOSUNNY   67  26  21 W6        30.22F
JAMESTOWN      MOSUNNY   65  34  31 VRB7      30.21F
$$




USA.gov is the U.S. government's official web portal to all federal, state and local government web resources and services.